Regional Weather Roundup
Issued by NWS

Home | Current Version | Previous Version | Graphics & Text | Print | Product List | Glossary On
Versions: 1 2 3 4 5 6 7 8 9 10 11 12 13 14 15 16 17 18 19 20 21 22 23 24 25 26 27 28 29 30 31 32 33 34 35 36 37 38 39 40 41 42 43 44 45 46 47 48 49 50
000
ASUS43 KOAX 280402
RWRNE

WEATHER ROUNDUP FOR NEBRASKA
NATIONAL WEATHER SERVICE OMAHA NE
1100 PM CDT SAT AUG 27 2016

NOTES: SATELLITE DATA IS BEING USED TO AUGMENT CLOUD COVER ABOVE
       12000 FEET.
       "FAIR" INDICATES FEW OR NO CLOUDS BELOW 12,000 FEET WITH NO
       SIGNIFICANT WEATHER AND/OR OBSTRUCTIONS TO VISIBILITY.

  * THESE STATIONS DO NOT REPORT WEATHER SUCH AS RAIN...SNOW OR FOG.

NEZ001>004-019>022-054>056-280500-
NEBRASKA PANHANDLE

CITY           SKY/WX    TMP DP  RH WIND       PRES   REMARKS
SCOTTSBLUFF    CLEAR     62  54  74 E8        30.03R
ALLIANCE       CLEAR     63  56  78 S12       30.02R
CHADRON        CLOUDY    75  51  43 S21G28    29.94R
KIMBALL        CLEAR     62  54  73 S9        30.11R
SIDNEY         CLOUDY    64  56  75 S10       30.09R
$$

NEZ057>060-069>072-079>082-280500-
SOUTHWEST NEBRASKA

CITY           SKY/WX    TMP DP  RH WIND       PRES   REMARKS
NORTH PLATTE   CLEAR     67  64  90 E7        30.05R
IMPERIAL       CLEAR     68  62  81 SE10      30.05R
LEXINGTON      CLOUDY    71  64  80 SE7       30.05R
MCCOOK         CLOUDY    71  65  81 E8        30.03R
OGALLALA       CLEAR     71  60  68 SE9       30.05R
$$

NEZ005>010-023>029-035>040-094-280500-
NORTH CENTRAL NEBRASKA

CITY           SKY/WX    TMP DP  RH WIND       PRES   REMARKS
VALENTINE      CLEAR     70  58  65 S9        29.98R
AINSWORTH      CLEAR     71  64  76 S13       30.02R
BROKEN BOW     CLEAR     69  64  84 S8        30.05R
O`NEILL        CLEAR     71  62  72 S7        30.03R
ORD            CLEAR     69  61  75 E5        30.04R
THEDFORD       CLEAR     72  64  77 S13       30.04R
$$

NEZ041-046>049-061>064-073>077-083>087-280500-
SOUTH CENTRAL NEBRASKA

CITY           SKY/WX    TMP DP  RH WIND       PRES   REMARKS
GRAND ISLAND   CLOUDY    69  65  86 S5        30.06R
AURORA         PTCLDY    68  67  96 SE6       30.06R
HASTINGS       CLOUDY    73  65  75 SE8       30.07R
HEBRON         CLOUDY    69  67  92 CALM      30.05R
HOLDREGE       CLOUDY    68  64  87 SE7       30.06R
KEARNEY *      CLOUDY    70  64  83 SE7       30.05R
YORK           CLOUDY    70  66  88 S3        30.06R
$$

NEZ011>018-030>034-042>045-280500-
NORTHEAST NEBRASKA

CITY           SKY/WX    TMP DP  RH WIND       PRES   REMARKS
NORFOLK        CLEAR     69  63  81 S9        30.05R
ALBION         CLOUDY    67  63  84 SE5       30.05R
BLAIR          CLEAR     72  67  85 SE5       30.06R
FREMONT        PTCLDY    70  67  91 SE5       30.06R
TEKAMAH        CLEAR     65  63  93 S5        30.05R
WAYNE          CLEAR     68  66  92 S6        30.05R
$$

NEZ050>053-065>068-078-088>093-280500-
SOUTHEAST NEBRASKA

CITY           SKY/WX    TMP DP  RH WIND       PRES   REMARKS
LINCOLN        CLEAR     72  64  76 CALM      30.06R
OMAHA EPPLEY   CLEAR     74  66  76 CALM      30.05R
BEATRICE       CLOUDY    72  67  85 SE5       30.05R
FALLS CITY     CLEAR     72  69  90 S5        30.04R
NEBRASKA CITY  CLEAR     72  71  98 CALM      30.05R
PLATTSMOUTH    CLEAR     71  69  93 E5        30.06R
$$

NEZ044-045-051>053-067-280500-
OMAHA AREA

CITY           SKY/WX    TMP DP  RH WIND       PRES   REMARKS
OMAHA EPPLEY   CLEAR     74  66  76 CALM      30.05R
BLAIR          CLEAR     72  67  85 SE5       30.06R
FREMONT        PTCLDY    70  67  91 SE5       30.06R
MILLARD        CLEAR     71  68  91 CALM      30.05R
OFFUTT AFB     CLEAR     66  66 100 NE3       30.04R
PLATTSMOUTH    CLEAR     71  69  93 E5        30.06R
WAHOO          FAIR      66  65  95 CALM      30.06R
$$




USA.gov is the U.S. government's official web portal to all federal, state and local government web resources and services.